Dalzell, IL

6:11 PM CST on February 08, 2016 (GMT -0600)
Illinois Valley Regional-Duncan

Weather History for KVYS - December, 2013

Change the Weather History Date:

Tuesday, December 3, 2013

  Actual Average Record
Temperature  
Mean Temperature 42 °F -  
Max Temperature 47 °F 41 °F 70 °F (1970)
Min Temperature 38 °F 23 °F -4 °F (1976)
Degree Days  
Heating Degree Days 22    
Moisture  
Dew Point 43 °F    
Average Humidity 96    
Maximum Humidity 98    
Minimum Humidity 93    
Precipitation  
Precipitation 0.00 in - - ()
Sea Level Pressure  
Sea Level Pressure 29.68 in    
Wind  
Wind Speed 7 mph (SE)    
Max Wind Speed 13 mph    
Max Gust Speed 16 mph    
Visibility 1 miles    
Events Fog    
Averages and records for this station are not official NWS values.
T = Trace of Precipitation, MM = Missing Value Source: NWS Daily Summary

Daily Weather History Graph

Daily Weather History Graph

Search for Another Location

Airport or City:

Trip Planner

Search our weather history database for the weather conditions in past years. The results will help you decide how hot, cold, wet, or windy it might be!

Date:

Astronomy

Dec. 03, 2013 Rise Set
Actual Time 7:05 AM CST 4:27 PM CST
Civil Twilight 6:34 AM CST 4:58 PM CST
Nautical Twilight 6:00 AM CST 5:32 PM CST
Astronomical Twilight 5:26 AM CST 6:06 PM CST
Moon 7:34 AM CST (12/3) 5:31 PM CST (12/3)
Length of Visible Light 10h 23m
Length of Day
9h 22m
New Moon, 1% of the Moon is Illuminated
Dec 3
New Moon
Dec 9
First Quarter
Dec 17
Full
Dec 25
Last Quarter
Jan 1
New

Hourly Weather History & Observations

Time (CST) Temp. Windchill Dew Point Humidity Pressure Visibility Wind Dir Wind Speed Gust Speed Precip Events Conditions
12:15 AM 38.3 °F 33.2 °F 36.5 °F 93% 29.70 in 2.5 mi ESE 6.9 mph - N/A   Overcast
12:35 AM 38.3 °F 33.9 °F 36.5 °F 93% 29.70 in 2.5 mi East 5.8 mph - N/A   Overcast
12:55 AM 38.5 °F 34.1 °F 36.7 °F 93% 29.70 in 2.5 mi East 5.8 mph - N/A   Overcast
1:15 AM 39.0 °F 35.7 °F 37.2 °F 93% 29.70 in 2.5 mi East 4.6 mph - N/A   Overcast
1:35 AM 39.6 °F 33.5 °F 37.8 °F 93% 29.69 in 2.5 mi East 9.2 mph - N/A   Overcast
1:55 AM 39.6 °F 34.0 °F 37.8 °F 93% 29.68 in 2.5 mi ESE 8.1 mph - N/A   Overcast
2:15 AM 39.6 °F 34.0 °F 37.8 °F 93% 29.68 in 2.5 mi ESE 8.1 mph - N/A   Overcast
2:35 AM 39.6 °F 34.7 °F 37.8 °F 93% 29.69 in 2.5 mi SE 6.9 mph - N/A   Overcast
2:55 AM 39.6 °F 34.0 °F 37.8 °F 93% 29.68 in 2.5 mi East 8.1 mph - N/A   Overcast
3:15 AM 39.6 °F 34.7 °F 37.8 °F 93% 29.67 in 2.5 mi ESE 6.9 mph - N/A   Overcast
3:35 AM 39.6 °F 35.4 °F 37.8 °F 93% 29.66 in 2.5 mi ESE 5.8 mph - N/A   Overcast
3:55 AM 39.6 °F 36.3 °F 37.8 °F 93% 29.66 in 2.5 mi East 4.6 mph - N/A   Overcast
4:15 AM 39.6 °F 36.3 °F 37.9 °F 94% 29.66 in 2.5 mi East 4.6 mph - N/A   Overcast
4:35 AM 39.6 °F 35.4 °F 38.1 °F 95% 29.67 in 2.5 mi East 5.8 mph - N/A   Overcast
4:55 AM 39.7 °F - 38.3 °F 95% 29.68 in 2.5 mi Calm Calm - N/A   Overcast
5:15 AM 39.6 °F - 37.9 °F 94% 29.68 in 2.0 mi Calm Calm - N/A   Overcast
5:35 AM 39.6 °F 36.3 °F 38.3 °F 95% 29.68 in 2.0 mi East 4.6 mph - N/A   Overcast
5:55 AM 39.6 °F 36.3 °F 38.3 °F 95% 29.68 in 1.5 mi ESE 4.6 mph - N/A   Overcast
6:15 AM 39.6 °F 36.3 °F 38.3 °F 95% 29.68 in 1.0 mi ESE 4.6 mph - N/A   Overcast
6:35 AM 39.6 °F 34.7 °F 38.5 °F 96% 29.68 in 0.2 mi SE 6.9 mph - N/A Fog Fog
6:55 AM 39.6 °F 35.4 °F 38.5 °F 96% 29.68 in 0.2 mi SSE 5.8 mph - N/A Fog Fog
7:15 AM 39.6 °F 34.0 °F 38.7 °F 97% 29.68 in 0.2 mi SE 8.1 mph - N/A Fog Fog
7:35 AM 39.6 °F 34.7 °F 38.7 °F 97% 29.68 in 0.2 mi SE 6.9 mph - N/A Fog Fog
7:55 AM 40.1 °F - 39.2 °F 97% 29.70 in 0.2 mi Calm Calm - N/A Fog Fog
8:15 AM 40.1 °F 38.0 °F 39.4 °F 97% 29.70 in 0.2 mi East 3.5 mph - N/A Fog Fog
8:35 AM 40.3 °F 36.3 °F 39.6 °F 97% 29.68 in 0.2 mi ESE 5.8 mph - N/A Fog Fog
8:55 AM 41.0 °F 39.0 °F 40.1 °F 97% 29.70 in 0.2 mi SE 3.5 mph - N/A Fog Fog
9:15 AM 41.0 °F 38.0 °F 40.3 °F 97% 29.70 in 0.2 mi ESE 4.6 mph - N/A Fog Fog
9:35 AM 41.0 °F 35.2 °F 40.3 °F 97% 29.68 in 0.2 mi ESE 9.2 mph - N/A Fog Fog
9:55 AM 41.4 °F 35.7 °F 40.8 °F 98% 29.68 in 0.2 mi ESE 9.2 mph - N/A Fog Fog
10:15 AM 42.1 °F 37.7 °F 41.4 °F 97% 29.68 in 0.5 mi SE 6.9 mph - N/A Fog Fog
10:35 AM 42.3 °F 36.3 °F 41.5 °F 97% 29.68 in 0.5 mi SE 10.4 mph - N/A Fog Fog
10:55 AM 42.8 °F 38.0 °F 42.1 °F 97% 29.68 in 0.5 mi SE 8.1 mph - N/A Fog Fog
11:15 AM 43.7 °F 38.6 °F 42.8 °F 97% 29.68 in 0.5 mi South 9.2 mph - N/A Fog Fog
11:35 AM 43.7 °F 39.1 °F 43.0 °F 97% 29.68 in 0.5 mi SSE 8.1 mph - N/A Fog Fog
11:55 AM 44.1 °F 38.1 °F 43.3 °F 97% 29.67 in 0.8 mi SSE 11.5 mph - N/A   Overcast
12:15 PM 44.6 °F 38.4 °F 43.9 °F 97% 29.67 in 0.5 mi SSE 12.7 mph 16.1 mph N/A Fog Fog
12:35 PM 45.0 °F 39.3 °F 44.2 °F 97% 29.67 in 0.8 mi South 11.5 mph - N/A   Overcast
12:55 PM 45.3 °F 39.3 °F 44.6 °F 97% 29.66 in 1.0 mi South 12.7 mph - N/A   Overcast
1:15 PM 45.5 °F 40.3 °F 44.8 °F 97% 29.67 in 1.0 mi South 10.4 mph - N/A   Overcast
1:35 PM 45.9 °F 40.0 °F 45.1 °F 97% 29.66 in 1.5 mi South 12.7 mph - N/A   Overcast
1:55 PM 46.4 °F 41.9 °F 45.5 °F 97% 29.67 in 1.2 mi SSW 9.2 mph - N/A   Overcast
2:15 PM 46.4 °F 41.9 °F 45.7 °F 97% 29.67 in 1.2 mi South 9.2 mph - N/A   Overcast
2:35 PM 46.6 °F - 45.9 °F 97% 29.65 in 1.5 mi South 10.4 mph - N/A   Overcast
2:55 PM 46.6 °F - 45.9 °F 97% 29.65 in 1.0 mi SSE 10.4 mph - N/A   Overcast
3:15 PM 46.8 °F - 46.0 °F 97% 29.64 in 1.2 mi SSE 11.5 mph - N/A   Overcast
3:35 PM 46.8 °F - 46.2 °F 98% 29.64 in 1.5 mi SSE 10.4 mph - N/A   Overcast
3:55 PM 46.8 °F - 46.0 °F 97% 29.63 in 1.2 mi SE 12.7 mph - N/A   Overcast
4:15 PM 46.9 °F - 46.0 °F 97% 29.64 in 1.0 mi SSE 11.5 mph - N/A   Overcast
4:35 PM 47.1 °F - 46.2 °F 97% 29.63 in 1.0 mi SE 12.7 mph - N/A   Overcast
4:55 PM 47.3 °F - 46.4 °F 97% 29.63 in 1.0 mi SSE 9.2 mph - N/A   Overcast
5:15 PM 47.3 °F - 46.4 °F 97% 29.64 in 1.0 mi South 11.5 mph - N/A   Overcast
5:35 PM 47.5 °F - 46.8 °F 97% 29.66 in 1.8 mi SSW 11.5 mph - N/A   Overcast
5:55 PM 47.7 °F - 47.1 °F 98% 29.67 in 1.5 mi South 11.5 mph - N/A   Overcast
6:15 PM 47.8 °F - 47.3 °F 98% 29.68 in 1.2 mi SSW 5.8 mph - N/A   Overcast
6:35 PM 47.5 °F - 46.8 °F 97% 29.70 in 0.8 mi WSW 4.6 mph - N/A   Overcast
6:55 PM 47.3 °F - 46.4 °F 97% 29.71 in 0.5 mi Calm Calm - N/A Fog Fog
7:15 PM 47.3 °F - 46.4 °F 97% 29.71 in 0.2 mi Calm Calm - N/A Fog Fog
7:35 PM 46.8 °F - 46.0 °F 97% 29.70 in 0.2 mi ESE 3.5 mph - N/A Fog Fog
7:55 PM 46.8 °F - 46.0 °F 97% 29.71 in 0.2 mi Calm Calm - N/A Fog Fog
8:15 PM 47.3 °F - 46.4 °F 97% 29.70 in 0.2 mi Calm Calm - N/A Fog Fog
8:35 PM 47.5 °F - 46.8 °F 97% 29.70 in 0.5 mi SE 5.8 mph - N/A Fog Fog
8:55 PM 47.5 °F - 46.8 °F 97% 29.70 in 1.2 mi ESE 5.8 mph - N/A   Overcast
9:15 PM 47.8 °F - 47.3 °F 98% 29.70 in 1.5 mi SE 5.8 mph - N/A   Overcast
9:35 PM 47.8 °F - 47.3 °F 98% 29.70 in 1.5 mi SSE 8.1 mph - N/A   Overcast
9:55 PM 47.8 °F - 47.3 °F 98% 29.70 in 1.8 mi SSE 8.1 mph - N/A   Overcast
10:15 PM 47.8 °F - 47.3 °F 98% 29.70 in 2.0 mi SSE 8.1 mph - N/A   Overcast
10:35 PM 47.8 °F - 47.3 °F 98% 29.70 in 2.5 mi SSE 9.2 mph - N/A   Overcast
10:55 PM 47.7 °F - 46.9 °F 97% 29.69 in 2.5 mi SSE 11.5 mph - N/A   Overcast
11:15 PM 46.6 °F - 45.9 °F 97% 29.68 in 2.5 mi SSE 10.4 mph - N/A   Mostly Cloudy
11:35 PM 45.9 °F 41.2 °F 45.1 °F 97% 29.70 in 2.0 mi South 9.2 mph - N/A   Overcast
11:55 PM 46.2 °F 42.2 °F 45.5 °F 97% 29.70 in 2.0 mi South 8.1 mph - N/A   Overcast